GFSCGP_925_temp_138.txt.gz
Temp
14 14 14 15 14 15 15 14 13 13 15 16 15 15 9 7 6 4 4 3 3 3 3 3 2 1 -0 -1 -1 -1 -1 -1 -1 -1 0 0 0 0 1 1 1 1 3 5
13 13 15 15 15 14 14 13 12 14 14 15 14 14 8 8 6 4 3 2 2 2 2 2 1 0 -1 -1 -1 -1 -1 -1 -1 -0 -1 -0 -0 0 1 1 1 2 3 4
14 15 15 15 14 14 13 13 13 14 16 15 15 12 8 7 6 5 4 3 2 1 1 1 0 -0 -1 -2 -1 -1 -1 -1 -1 -1 -1 -1 -1 0 1 1 2 2 2 3
14 15 16 15 14 15 14 15 15 15 14 12 14 12 11 7 6 5 4 2 1 1 0 0 -0 -1 -2 -1 -1 -1 -1 -1 -1 -2 -1 -1 -1 0 0 1 1 2 3 3
15 15 15 14 14 15 14 17 15 15 14 13 13 9 10 8 7 6 4 3 1 0 -0 -1 -1 -2 -1 -1 -1 -1 -1 -1 -2 -2 -1 -1 -1 -1 -0 0 1 2 3 4
13 14 15 14 15 14 15 16 14 11 11 10 13 12 11 8 8 6 4 2 1 1 -0 -1 -1 -2 -2 -2 -1 -2 -2 -2 -2 -2 -2 -1 -1 -1 0 1 1 2 4 4
13 14 14 15 15 15 15 13 11 11 10 12 13 11 11 6 5 5 3 2 1 -0 -1 -2 -2 -2 -2 -2 -2 -2 -2 -2 -2 -2 -2 -2 -1 -1 -1 0 1 2 3 4
11 12 15 16 16 15 15 13 11 12 10 11 13 12 9 6 5 4 4 1 1 -1 -2 -2 -3 -3 -3 -2 -2 -2 -2 -2 -2 -2 -2 -2 -2 -2 -1 -1 -0 1 2 4
11 12 14 15 16 16 15 13 14 12 12 8 9 11 6 5 5 4 3 1 -1 -1 -2 -3 -3 -2 -2 -3 -2 -3 -3 -3 -3 -3 -2 -2 -2 -3 -2 -2 -2 -1 0 2
13 10 13 14 15 16 15 14 11 8 11 12 11 8 9 5 5 2 -1 -0 -2 -2 -3 -4 -3 -2 -2 -2 -2 -2 -3 -3 -3 -3 -3 -3 -3 -3 -3 -3 -2 -2 -1 1
12 8 12 13 14 13 12 12 12 11 11 10 8 7 7 5 3 2 -0 -2 -3 -4 -5 -5 -3 -2 -2 -2 -2 -3 -3 -3 -4 -4 -4 -3 -4 -3 -4 -4 -4 -3 -2 -1
13 9 9 12 13 12 12 12 11 9 10 10 8 8 5 5 4 3 1 -2 -4 -4 -5 -6 -3 -2 -2 -2 -3 -3 -3 -4 -4 -4 -5 -4 -4 -4 -5 -5 -5 -5 -3 -3
12 10 9 11 12 12 11 11 10 9 8 8 8 8 5 5 4 3 -0 -3 -4 -6 -5 -6 -4 -4 -3 -3 -3 -3 -4 -4 -4 -5 -5 -5 -5 -5 -5 -6 -6 -5 -5 -4
11 9 10 9 9 10 9 11 11 11 8 7 9 10 9 5 3 2 0 -2 -4 -5 -6 -7 -6 -4 -3 -3 -4 -3 -4 -4 -5 -5 -5 -6 -6 -6 -6 -6 -6 -6 -5 -5
10 7 8 9 9 9 10 9 9 10 10 9 10 10 11 7 4 3 1 -0 -0 -1 -1 -3 -6 -4 -3 -3 -4 -4 -4 -4 -5 -5 -6 -6 -6 -7 -7 -7 -7 -6 -7 -6
8 5 5 5 9 8 8 7 8 9 9 9 10 10 8 4 2 1 1 1 1 0 -1 -2 -3 -3 -4 -4 -4 -4 -4 -5 -5 -6 -6 -6 -7 -7 -8 -8 -8 -8 -7 -7
8 7 5 8 9 8 8 6 8 9 9 10 9 10 4 3 3 2 1 1 1 0 -1 -3 -4 -4 -5 -5 -5 -5 -5 -5 -6 -6 -6 -6 -7 -7 -8 -8 -8 -8 -8 -8
7 7 7 8 8 7 7 9 9 9 10 9 7 5 5 4 2 1 0 0 1 -1 -2 -3 -5 -5 -5 -4 -4 -5 -5 -5 -6 -6 -7 -7 -7 -8 -8 -8 -9 -9 -9 -8
8 7 7 8 8 9 9 10 9 9 10 9 7 3 1 0 0 -1 0 -0 -1 -2 -3 -4 -4 -5 -5 -5 -5 -5 -6 -6 -6 -7 -7 -7 -8 -8 -8 -8 -9 -9 -9 -9
7 7 7 6 7 8 9 9 8 9 8 7 4 2 1 1 3 0 -1 -1 -2 -3 -4 -5 -5 -5 -5 -6 -5 -6 -6 -6 -7 -7 -7 -7 -7 -8 -9 -9 -9 -9 -9 -9
7 6 6 7 8 8 9 8 8 8 8 6 4 2 1 2 0 -1 -1 -2 -3 -4 -4 -5 -6 -7 -7 -6 -6 -6 -7 -7 -7 -7 -7 -7 -7 -8 -8 -9 -9 -9 -9 -9
8 7 7 8 8 8 7 7 8 6 3 4 3 2 2 -0 -1 -1 -2 -3 -3 -4 -5 -5 -6 -7 -7 -7 -7 -7 -7 -7 -7 -7 -7 -7 -8 -8 -8 -8 -8 -9 -9 -9
7 7 8 8 7 5 5 4 4 4 4 2 2 2 0 -0 -0 -2 -3 -3 -3 -4 -5 -6 -7 -8 -8 -8 -8 -8 -7 -7 -7 -7 -8 -8 -8 -8 -8 -8 -8 -8 -9 -9
8 8 7 8 6 5 5 3 3 3 2 1 1 1 0 -1 -1 -2 -2 -3 -4 -5 -6 -6 -7 -8 -8 -8 -8 -8 -7 -7 -7 -7 -8 -8 -9 -9 -9 -9 -9 -8 -9 -9
6 7 6 6 5 4 4 4 2 1 1 1 1 0 0 -1 -1 -2 -3 -4 -4 -5 -6 -6 -7 -8 -9 -9 -8 -8 -8 -8 -7 -8 -8 -9 -9 -9 -9 -10 -10 -9 -9 -9
6 6 6 7 6 5 4 3 1 0 0 -0 -0 -0 -0 -1 -1 -2 -4 -4 -4 -6 -6 -7 -8 -8 -9 -9 -8 -8 -8 -8 -8 -8 -9 -9 -9 -10 -10 -10 -10 -10 -10 -10

GFSCGP_925_temp_141.txt.gz
Temp
15 17 17 16 16 16 16 15 15 16 17 16 17 17 12 9 9 8 7 7 6 6 5 4 3 2 1 1 1 1 1 1 1 1 1 0 0 1 1 2 2 2 2 2
16 16 16 16 15 15 15 15 15 16 17 16 17 17 12 10 9 7 7 7 6 6 6 4 3 2 1 1 1 1 1 0 0 -0 -1 -1 -1 -0 0 1 2 2 2 2
16 17 16 16 15 15 15 15 15 16 16 16 16 17 12 9 7 7 6 5 5 4 4 4 2 1 1 1 1 0 0 0 -0 -1 -1 -1 -1 -0 0 1 1 1 2 2
15 16 16 16 16 16 15 16 16 16 16 16 16 17 15 11 9 7 6 5 5 4 4 3 2 1 1 0 0 0 -0 -1 -1 -1 -1 -1 -1 -1 -0 -0 -0 0 1 2
16 15 15 15 16 15 16 16 16 16 15 15 16 15 15 10 10 8 7 5 4 4 3 3 1 1 0 -0 -0 -0 -0 -1 -1 -2 -2 -1 -1 -1 -1 -0 -0 0 1 2
14 14 15 16 15 15 16 16 15 13 14 15 16 16 16 13 12 9 6 5 4 3 3 2 1 0 -0 -0 -1 -1 -1 -1 -1 -2 -1 -1 -1 -2 -2 -1 -1 -0 0 1
14 14 15 15 16 15 16 15 15 15 14 15 14 14 17 11 9 9 5 4 3 2 2 2 1 -0 -1 -1 -1 -1 -1 -1 -2 -2 -2 -2 -2 -2 -2 -2 -2 -1 -0 1
14 15 15 16 16 16 15 15 15 13 14 15 16 15 16 9 7 6 5 2 3 2 1 1 -2 -1 -1 -1 -2 -2 -2 -1 -2 -2 -2 -2 -3 -3 -3 -3 -3 -2 -2 -1
13 14 14 15 16 16 15 15 16 14 14 12 14 14 9 7 6 5 5 4 2 1 0 -1 -2 -2 -2 -3 -3 -3 -2 -2 -2 -3 -3 -3 -3 -3 -4 -4 -3 -3 -2 -2
13 13 13 14 15 15 16 16 14 13 12 13 14 13 14 7 7 5 3 2 1 1 -0 -1 -2 -2 -3 -3 -3 -3 -3 -3 -3 -3 -4 -4 -4 -4 -4 -4 -4 -4 -3 -2
13 11 13 14 15 14 14 14 13 13 13 12 12 13 9 8 6 6 3 2 1 -0 -2 -2 -3 -3 -3 -3 -3 -4 -4 -4 -5 -5 -5 -4 -5 -5 -5 -5 -5 -4 -4 -3
13 11 12 13 14 13 13 13 13 12 12 10 10 12 9 8 7 6 3 1 -0 -1 -2 -3 -3 -3 -3 -3 -4 -4 -5 -5 -5 -6 -6 -5 -6 -6 -6 -6 -6 -6 -4 -4
12 12 11 13 13 13 13 12 11 10 10 10 10 12 8 7 6 5 3 1 -0 -1 -2 -3 -3 -4 -4 -4 -4 -4 -4 -5 -5 -6 -6 -6 -7 -7 -7 -7 -7 -6 -5 -4
12 11 12 11 12 12 11 12 12 12 10 11 11 11 12 9 7 5 3 1 -0 -1 -2 -2 -3 -4 -4 -4 -4 -4 -4 -4 -5 -5 -6 -7 -7 -7 -8 -7 -7 -7 -6 -5
11 10 10 11 11 11 11 11 11 11 11 10 11 11 12 12 10 7 4 1 1 0 0 -1 -2 -3 -4 -3 -4 -3 -3 -4 -4 -4 -5 -6 -6 -7 -7 -7 -8 -7 -7 -6
9 10 7 7 10 10 10 8 9 10 10 10 10 10 12 8 5 4 3 3 2 2 1 -0 -1 -2 -3 -3 -3 -4 -4 -4 -4 -4 -5 -5 -5 -6 -7 -7 -8 -8 -8 -7
10 9 9 9 10 10 10 8 8 10 10 11 11 12 8 7 6 5 3 4 3 2 0 -1 -3 -3 -4 -4 -4 -4 -4 -5 -5 -5 -5 -5 -5 -6 -6 -6 -7 -8 -8 -8
9 9 9 9 9 8 11 10 11 10 11 11 11 10 8 7 5 4 4 3 2 1 -1 -2 -4 -4 -5 -5 -5 -5 -5 -5 -5 -6 -6 -6 -6 -6 -7 -7 -7 -7 -7 -8
9 9 9 8 10 11 11 12 11 10 11 12 11 7 4 3 3 2 2 3 2 1 -1 -3 -4 -5 -6 -5 -5 -5 -6 -6 -6 -6 -7 -7 -7 -7 -7 -8 -8 -8 -8 -8
8 9 8 7 8 9 11 10 9 10 11 8 8 6 4 4 7 6 2 1 -0 -2 -3 -4 -5 -5 -5 -5 -5 -6 -6 -6 -6 -7 -7 -7 -7 -8 -8 -8 -8 -8 -8 -8
8 7 8 8 8 10 11 9 9 9 10 7 6 6 4 6 5 2 1 -1 -1 -2 -4 -5 -5 -5 -6 -6 -6 -6 -6 -6 -7 -6 -7 -7 -7 -7 -8 -8 -8 -9 -9 -9
10 9 8 8 8 8 8 8 9 8 6 5 5 4 4 2 1 0 -1 -2 -2 -3 -4 -5 -6 -6 -7 -6 -6 -6 -6 -6 -6 -7 -7 -7 -7 -7 -7 -7 -8 -8 -9 -9
9 10 10 10 10 8 7 8 7 6 6 5 5 4 3 1 0 -1 -3 -2 -3 -3 -4 -5 -6 -6 -7 -7 -7 -6 -7 -6 -6 -7 -7 -7 -8 -8 -8 -7 -7 -8 -8 -8
9 9 9 9 9 8 7 6 5 5 5 4 4 3 2 1 -0 -1 -2 -2 -3 -4 -5 -5 -6 -6 -7 -7 -7 -7 -7 -7 -7 -7 -7 -8 -8 -8 -8 -8 -8 -8 -8 -8
9 8 8 8 8 7 7 6 5 3 3 2 3 2 1 1 0 -0 -1 -3 -3 -4 -5 -5 -6 -6 -7 -8 -8 -8 -7 -7 -7 -7 -8 -8 -8 -9 -9 -9 -9 -9 -9 -9
8 9 8 9 9 9 8 5 3 2 2 2 2 1 1 1 -0 -2 -3 -3 -3 -4 -5 -6 -6 -7 -8 -8 -9 -9 -8 -8 -7 -7 -8 -9 -9 -9 -9 -9 -9 -10 -10 -10

GFSCGP_925_temp_144.txt.gz
Temp
20 21 23 22 20 20 20 20 21 22 23 21 21 22 21 16 16 15 15 14 13 13 11 9 8 8 7 7 6 6 5 5 5 5 4 4 4 4 4 4 4 4 5 4
21 22 21 20 19 19 20 20 21 21 21 20 22 22 21 18 17 16 15 14 13 12 12 10 8 8 7 6 6 5 5 5 4 4 3 3 2 2 2 2 3 2 2 2
20 21 19 19 19 19 20 20 20 20 20 21 20 22 20 17 15 13 12 12 11 11 10 10 8 8 7 6 5 5 5 4 4 3 3 2 3 2 2 2 2 2 1 2
20 19 19 19 19 19 19 20 19 19 20 21 20 20 22 19 16 13 13 12 11 10 10 9 8 7 6 6 5 4 4 4 4 3 2 2 2 1 1 0 1 1 1 1
19 19 18 18 19 19 19 19 19 19 20 19 21 19 21 19 18 16 14 12 10 9 9 9 7 6 6 5 5 4 4 4 3 2 2 1 1 0 -1 -1 -0 0 1 1
19 18 18 19 18 18 19 19 19 19 20 19 21 20 21 20 18 17 14 11 9 9 8 8 6 6 5 5 4 4 3 4 3 2 1 0 -1 -1 -1 -1 -1 -0 0 0
18 18 18 18 19 19 20 19 19 19 18 19 19 18 20 20 15 15 11 10 9 8 8 7 6 4 4 3 2 2 3 3 3 2 1 -0 -1 -2 -2 -2 -2 -2 -1 -1
18 17 18 19 19 18 18 18 17 16 17 18 19 18 19 14 12 12 10 6 8 7 6 5 0 3 3 2 -0 1 1 2 2 1 0 -0 -1 -3 -3 -3 -3 -2 -2 -2
17 17 18 18 18 18 18 18 18 16 17 16 18 19 14 12 11 10 10 9 7 7 5 2 0 2 1 -2 -3 -0 0 0 0 0 -1 -1 -2 -2 -3 -3 -3 -3 -3 -3
17 15 17 17 18 18 18 18 16 17 13 15 18 18 16 11 13 10 5 6 4 6 4 2 -1 0 0 -2 -3 -2 -1 -2 -2 -1 -2 -2 -3 -3 -3 -4 -4 -3 -4 -3
17 15 17 17 17 18 17 17 16 16 17 15 15 17 16 11 8 8 5 4 3 2 0 1 -1 -1 -1 -2 -3 -3 -3 -4 -4 -3 -3 -3 -4 -4 -3 -4 -4 -4 -4 -3
16 16 16 17 18 17 16 16 16 14 15 15 12 14 14 14 13 12 7 3 2 2 -0 -1 -1 -1 -2 -2 -3 -3 -4 -4 -4 -5 -5 -4 -5 -5 -5 -5 -5 -5 -5 -4
15 15 14 16 16 15 16 15 15 15 13 13 12 14 14 13 12 11 7 3 1 1 -0 -1 -1 -1 -2 -2 -3 -3 -3 -3 -4 -4 -5 -5 -5 -5 -6 -6 -6 -6 -5 -5
14 14 14 14 15 15 14 15 15 15 12 13 14 14 15 16 15 13 10 5 2 1 0 -0 -1 -2 -2 -2 -2 -1 -1 -1 -2 -2 -3 -4 -5 -6 -6 -6 -6 -6 -6 -6
14 12 13 14 14 14 14 13 14 14 14 13 13 13 15 15 15 15 13 6 4 2 2 1 -0 -1 -1 -0 -0 0 -0 -0 -0 -1 -1 -2 -3 -4 -5 -6 -6 -7 -7 -6
13 11 10 10 13 13 12 12 13 13 13 13 13 13 15 16 12 10 9 6 5 4 4 3 2 1 -0 1 0 -0 -0 -1 -1 -1 -1 -2 -2 -2 -3 -4 -5 -6 -7 -7
12 12 11 12 14 13 12 11 11 13 14 14 13 15 16 14 13 10 8 7 7 5 4 2 1 0 -0 -0 -1 -1 -1 -2 -2 -2 -2 -2 -2 -3 -3 -3 -4 -4 -5 -7
12 12 12 12 12 10 14 14 15 14 15 15 15 15 16 14 10 9 8 8 7 5 4 1 -2 -1 -1 -1 -1 -2 -2 -2 -3 -3 -3 -3 -3 -3 -4 -4 -4 -4 -5 -6
12 12 11 11 12 14 14 15 14 14 14 15 13 14 11 9 8 6 7 7 6 5 3 1 -1 -3 -3 -2 -2 -3 -3 -3 -4 -5 -5 -5 -5 -5 -5 -5 -5 -5 -5 -6
12 12 11 11 10 11 14 15 14 14 12 12 12 12 10 9 11 11 6 6 4 3 2 1 -0 -1 -1 -2 -2 -3 -4 -5 -5 -5 -6 -6 -6 -6 -6 -6 -6 -6 -5 -6
10 10 10 11 11 13 15 13 13 11 12 11 11 11 10 10 8 7 6 4 3 2 1 -0 -0 -0 -1 -2 -2 -2 -3 -5 -5 -4 -4 -6 -6 -6 -6 -6 -6 -6 -6 -6
12 11 10 11 10 10 13 11 11 12 11 10 10 10 9 9 5 5 4 2 2 1 -0 -1 -1 -1 -2 -2 -2 -2 -2 -3 -4 -4 -4 -5 -5 -5 -5 -5 -5 -6 -6 -6
11 13 13 13 13 14 13 13 13 12 12 11 9 10 8 6 4 2 -0 0 1 1 -0 -1 -1 -2 -3 -2 -2 -2 -3 -4 -4 -4 -4 -5 -5 -6 -5 -5 -5 -5 -5 -6
12 13 11 11 12 13 14 14 11 11 9 9 9 9 7 5 3 1 1 1 1 0 -0 -1 -1 -2 -3 -3 -4 -4 -4 -4 -4 -4 -5 -5 -6 -5 -6 -6 -6 -7 -7 -6
13 12 11 11 12 13 13 12 11 10 7 7 7 7 5 5 3 3 2 1 1 0 -1 -1 -1 -2 -3 -4 -4 -5 -4 -4 -4 -4 -5 -5 -6 -6 -6 -8 -8 -8 -9 -9
12 12 11 11 13 12 12 11 9 8 7 7 6 5 5 5 4 3 2 0 0 -1 -1 -1 -2 -3 -4 -4 -5 -5 -5 -5 -5 -5 -5 -6 -6 -6 -7 -7 -7 -9 -10 -10

GFSCGP_925_temp_147.txt.gz
Temp
25 23 25 27 25 24 24 24 25 26 27 25 25 25 26 23 22 21 20 19 19 17 16 14 12 12 11 11 10 9 9 8 8 8 8 8 7 7 7 7 6 5 5 4
23 23 26 24 23 22 23 23 24 26 25 23 24 25 26 24 22 22 21 20 18 17 16 14 13 12 11 10 9 9 9 8 8 7 7 7 6 7 6 6 5 5 4 3
23 25 23 22 23 22 23 23 23 23 24 24 24 24 26 24 23 21 19 19 17 16 15 14 13 12 11 10 9 9 8 8 8 6 7 6 6 5 5 3 3 3 2 2
23 24 22 22 22 23 22 23 22 22 22 22 24 22 25 24 21 19 18 17 17 15 14 14 12 11 11 9 9 8 8 8 7 6 5 4 4 4 3 2 2 2 2 2
23 22 21 21 23 22 22 21 22 22 22 22 23 23 25 24 22 21 19 17 15 14 13 13 12 10 10 9 8 7 7 7 7 6 4 3 2 2 2 1 1 1 1 1
23 22 21 22 21 21 21 21 22 22 22 20 23 23 24 24 22 22 19 16 15 13 13 12 11 9 9 8 7 6 7 7 6 5 3 2 2 1 0 -0 -0 -0 -0 -1
22 21 22 21 21 21 21 22 20 21 21 21 23 21 22 22 20 20 17 15 14 13 12 12 9 8 8 6 5 5 6 6 5 4 3 2 1 0 -1 -1 -1 -1 -1 -1
21 20 21 21 21 21 21 20 19 18 19 20 22 20 22 18 17 17 16 13 14 12 11 9 4 7 6 4 1 3 4 4 4 3 2 1 -0 -1 -1 -2 -2 -2 -2 -2
20 20 21 21 21 21 21 19 21 18 19 18 20 22 18 18 16 15 14 13 12 12 10 5 4 6 5 -1 -2 1 2 2 2 2 2 0 -1 -1 -2 -2 -2 -3 -2 -3
20 18 20 20 20 20 19 21 18 18 15 16 20 20 19 15 17 15 8 12 10 11 10 6 1 4 3 -1 -2 -1 0 -1 -0 0 1 -0 -2 -2 -2 -3 -3 -3 -3 -3
20 17 19 19 19 19 20 19 19 19 18 16 16 18 19 12 10 12 8 6 7 6 3 5 0 2 2 1 -2 -3 -2 -2 -3 -2 -1 -1 -2 -3 -3 -4 -4 -4 -4 -4
19 18 17 19 21 21 19 18 19 17 16 18 15 15 18 18 18 15 11 6 4 6 2 2 2 -0 -1 0 -1 -2 -2 -3 -3 -3 -3 -2 -3 -3 -4 -5 -5 -5 -4 -4
18 17 16 18 19 18 17 18 18 17 17 14 13 15 18 18 17 17 14 5 3 4 2 0 0 0 -1 0 -2 -1 -1 -1 -1 -2 -2 -3 -4 -4 -5 -5 -5 -5 -5 -5
15 17 16 16 17 18 17 18 18 17 14 14 15 16 17 18 18 18 18 9 5 2 2 1 0 -0 0 0 1 2 2 2 1 0 -1 -1 -2 -3 -4 -5 -5 -6 -6 -6
16 14 16 16 17 17 16 16 16 16 16 15 15 15 17 17 17 17 16 14 7 4 4 3 2 1 0 2 3 3 3 2 2 2 1 0 -0 -1 -2 -3 -3 -5 -6 -6
16 13 12 12 14 15 14 14 15 15 15 15 15 15 18 18 17 16 13 12 9 7 6 5 4 3 2 3 3 2 2 1 2 1 1 0 0 -0 -1 -1 -2 -3 -4 -5
15 14 13 13 16 16 14 13 13 15 16 16 16 17 18 17 17 15 13 11 9 7 7 5 4 3 3 2 2 2 2 1 1 0 -0 -0 -1 -1 -1 -1 -2 -2 -3 -4
14 14 14 13 14 12 15 17 17 16 17 18 18 15 15 14 14 13 13 11 10 9 7 3 1 2 2 2 1 1 1 0 -1 -2 -1 -2 -2 -2 -2 -2 -2 -2 -3 -4
14 14 13 12 14 15 16 17 17 16 15 17 16 16 15 13 12 10 10 11 10 8 6 3 1 -1 0 1 1 -0 -1 -1 -2 -4 -4 -3 -3 -3 -3 -3 -3 -3 -3 -4
14 14 13 12 12 12 16 17 17 16 14 15 15 14 13 14 12 8 8 9 8 6 5 4 2 2 2 1 1 -0 -2 -3 -2 -3 -4 -5 -4 -5 -5 -4 -4 -4 -4 -4
12 13 12 12 12 14 17 16 16 12 13 13 13 13 13 12 10 9 9 7 6 6 5 4 3 3 3 2 1 1 -1 -3 -2 -2 -2 -3 -4 -4 -4 -5 -4 -5 -4 -5
14 13 12 13 12 12 17 15 13 15 15 14 14 13 11 10 7 7 7 5 6 5 4 4 3 2 2 2 2 2 0 -0 -1 -2 -2 -3 -3 -3 -3 -4 -4 -4 -4 -4
14 15 14 15 14 15 15 15 16 16 15 14 13 12 10 10 7 6 3 4 5 5 4 3 3 2 1 1 1 1 -1 -1 -1 -1 -2 -2 -3 -3 -3 -3 -4 -4 -4 -4
15 16 14 13 14 15 15 16 16 16 14 13 12 12 10 8 6 4 3 4 4 4 3 3 2 1 1 0 -0 -0 -1 -1 -1 -1 -2 -2 -3 -3 -4 -4 -4 -6 -7 -6
14 14 13 13 14 15 15 15 14 14 14 11 10 10 10 9 7 5 4 5 4 4 3 2 2 1 1 -0 -1 -2 -2 -2 -2 -2 -3 -3 -3 -4 -3 -6 -7 -7 -9 -9
14 13 12 12 14 14 14 13 13 12 12 11 10 9 9 8 7 6 5 4 4 3 2 2 2 1 0 -1 -2 -2 -2 -2 -2 -3 -3 -5 -4 -4 -5 -5 -5 -8 -8 -9

GFSCGP_925_temp_153.txt.gz
Temp
20 19 18 20 21 23 23 22 21 21 23 24 22 23 19 18 18 17 15 15 14 13 13 13 12 12 11 10 10 9 9 8 7 7 6 5 4 4 4 3 2 1 1 1
19 19 22 24 24 23 22 21 20 21 23 23 21 21 21 19 20 17 16 15 14 13 12 12 12 12 10 10 9 9 8 7 7 6 5 4 3 3 3 2 1 0 0 0
19 21 24 24 23 22 22 21 20 21 22 22 21 19 20 22 20 19 17 16 14 13 12 11 11 11 10 9 8 8 8 7 6 5 4 3 2 2 1 0 -0 -0 -1 -1
20 22 23 23 22 22 20 22 22 21 19 18 21 18 20 21 19 17 15 13 12 12 11 11 10 10 9 8 7 7 7 6 5 4 3 2 1 1 0 -0 -1 -1 -1 -1
20 21 21 21 22 23 21 21 21 20 18 18 19 17 19 21 17 16 14 14 11 11 10 9 10 8 7 7 6 6 6 5 4 3 3 1 0 -0 -0 -1 -1 -2 -2 -2
20 22 22 22 23 22 21 20 19 19 17 13 19 18 18 18 17 16 15 13 12 10 9 9 10 7 5 6 5 5 5 4 3 3 2 1 -0 -1 -1 -2 -2 -2 -2 -3
20 20 21 22 21 21 20 19 14 14 13 15 21 19 18 18 19 17 13 12 11 10 9 6 7 5 4 4 3 3 3 2 2 2 1 -0 -1 -2 -2 -3 -3 -3 -3 -3
18 17 21 21 20 20 19 18 14 16 13 15 19 18 14 15 16 15 13 10 11 9 6 4 6 3 2 2 1 2 1 1 1 1 -0 -1 -2 -2 -3 -3 -4 -4 -4 -4
18 19 21 21 21 20 20 19 20 17 16 12 14 17 16 16 15 14 13 11 10 8 5 4 5 2 1 1 0 0 0 -1 -0 -1 -1 -2 -2 -3 -4 -4 -4 -4 -5 -5
18 16 20 20 20 20 19 19 15 13 14 14 15 16 12 12 13 12 8 10 9 7 4 1 4 1 1 0 0 -0 -1 -1 -1 -1 -2 -2 -3 -3 -4 -4 -5 -5 -5 -6
18 14 17 20 17 17 18 17 17 16 14 12 11 11 14 12 11 11 8 6 7 5 1 1 2 2 1 0 -0 -1 -1 -1 -1 -1 -2 -2 -3 -3 -4 -4 -5 -5 -6 -6
18 15 14 17 20 20 19 18 18 12 14 11 10 9 16 13 12 12 9 5 5 4 1 -0 1 1 1 -0 -1 -0 -0 -0 -1 -1 -1 -2 -2 -3 -3 -4 -5 -5 -6 -6
17 14 12 14 16 18 18 18 18 16 12 12 9 8 16 16 15 15 11 7 4 3 1 -1 -0 -0 0 0 0 0 1 0 0 -0 -1 -1 -2 -2 -3 -4 -5 -5 -6 -6
17 15 13 11 14 16 16 17 16 15 11 11 11 12 14 15 14 13 9 6 5 2 1 -1 -2 0 0 1 1 1 2 2 0 0 -0 -1 -1 -2 -3 -4 -4 -5 -6 -6
15 13 15 14 14 15 15 14 14 14 14 12 9 13 13 14 13 10 7 5 5 3 2 1 -1 -1 0 1 2 2 3 2 1 1 0 -0 -1 -1 -2 -3 -4 -5 -5 -6
15 11 12 10 14 14 13 12 13 14 14 13 14 13 14 13 13 11 8 6 5 4 4 3 1 1 0 2 3 2 2 2 1 0 -0 -1 -1 -1 -2 -2 -3 -4 -5 -6
13 11 11 11 14 14 11 10 12 14 15 14 13 13 12 11 11 10 10 9 7 6 5 3 2 1 2 3 3 2 1 1 -0 -0 -1 -1 -2 -2 -3 -3 -3 -4 -5 -6
12 12 11 10 12 9 11 16 16 15 15 15 16 13 11 11 9 9 10 8 8 6 4 2 2 3 3 2 2 1 0 -0 -1 -2 -2 -3 -3 -3 -3 -3 -4 -4 -5 -6
14 12 10 10 10 12 13 15 15 15 14 16 13 12 12 12 8 8 8 9 7 5 3 2 3 3 2 2 1 0 -1 -2 -3 -3 -4 -4 -4 -4 -4 -4 -4 -4 -5 -6
13 12 9 8 9 9 11 15 16 15 10 13 12 12 11 10 7 4 7 7 5 3 2 1 2 2 1 1 1 -0 -2 -2 -3 -3 -4 -4 -4 -4 -4 -4 -4 -4 -4 -5
10 10 10 9 9 10 14 16 15 11 10 13 13 12 11 9 7 7 6 5 5 4 2 2 1 1 1 1 -0 -2 -2 -2 -2 -3 -3 -3 -4 -4 -4 -4 -4 -4 -5 -5
11 10 9 9 9 8 14 14 12 11 12 12 13 11 9 9 7 6 5 4 5 4 3 2 2 2 2 1 0 -1 -2 -1 -2 -2 -3 -3 -3 -3 -4 -4 -5 -5 -6 -6
10 10 10 11 8 11 13 12 13 12 12 13 10 10 9 7 5 4 2 3 6 4 4 4 3 3 2 2 2 0 -0 -1 -1 -2 -2 -3 -3 -4 -5 -5 -6 -6 -7 -7
12 13 10 10 11 11 12 13 13 12 12 11 10 10 10 6 4 3 3 4 5 4 4 4 3 2 2 2 1 1 0 -0 -1 -2 -3 -3 -4 -4 -5 -5 -6 -7 -8 -8
9 10 10 9 11 12 13 12 11 12 12 12 10 10 10 6 4 4 5 5 5 4 4 3 2 2 1 1 0 -0 -0 -0 -1 -2 -3 -3 -4 -5 -5 -6 -7 -7 -8 -9
11 10 6 7 11 10 10 12 12 12 11 11 11 9 9 6 5 4 3 4 5 3 4 2 2 1 1 -0 -1 -1 -1 -1 -2 -3 -3 -4 -4 -5 -5 -6 -7 -8 -9 -9

GFSCGP_925_temp_156.txt.gz
Temp
20 18 17 18 18 20 20 20 20 19 20 22 20 19 17 16 16 14 11 11 11 11 10 11 11 10 10 9 9 8 7 7 7 6 5 4 3 2 2 1 -0 -0 -1 -1
18 17 19 20 20 20 20 20 19 19 21 20 20 20 17 16 18 15 13 11 11 10 9 9 9 9 9 8 8 8 6 6 5 5 4 3 2 1 1 -0 -1 -1 -1 -1
17 19 21 21 20 21 20 20 20 20 20 20 19 18 21 19 18 14 14 12 12 11 9 9 8 8 8 7 7 7 5 5 4 4 4 3 2 1 -0 -1 -1 -2 -2 -2
18 20 20 20 20 20 19 21 21 20 18 17 19 15 19 19 15 15 13 12 10 10 9 8 6 6 7 6 7 6 5 4 3 3 3 1 -0 -1 -1 -1 -2 -2 -2 -2
18 20 20 19 20 21 20 20 20 20 18 17 18 17 17 16 14 13 12 11 10 9 8 6 5 5 5 6 5 4 4 3 3 2 1 0 -1 -1 -1 -2 -3 -3 -3 -3
19 20 20 21 21 22 20 20 19 19 17 14 17 18 16 16 15 13 13 11 11 9 8 6 4 5 5 5 4 3 3 2 2 1 0 -0 -1 -2 -2 -3 -3 -3 -4 -4
18 19 19 20 20 20 20 17 14 14 13 15 19 17 15 15 16 15 12 12 11 9 8 5 3 3 3 3 3 2 2 1 1 0 -1 -1 -2 -3 -3 -3 -4 -4 -4 -5
16 14 18 19 20 19 18 17 14 15 13 15 17 17 14 14 13 13 12 10 10 7 7 4 2 2 2 2 1 1 1 0 -0 -0 -1 -2 -2 -3 -4 -4 -5 -5 -5 -5
16 16 19 19 20 19 18 16 18 16 14 12 14 14 15 14 13 12 11 10 8 6 4 3 1 1 1 1 1 1 0 -0 -1 -1 -2 -2 -3 -3 -4 -4 -5 -5 -6 -5
17 16 18 19 19 19 18 18 15 11 13 14 13 14 11 12 13 11 9 9 7 6 4 2 0 0 0 0 0 -0 -0 -1 -1 -1 -2 -3 -3 -4 -4 -5 -5 -5 -6 -5
16 14 17 19 17 17 17 16 16 16 12 12 10 10 12 11 11 11 8 7 7 5 3 1 -0 0 0 -0 -0 -0 -0 -1 -1 -1 -2 -2 -3 -4 -4 -5 -5 -5 -6 -6
17 13 13 17 19 18 17 17 16 12 14 11 9 8 14 13 12 11 9 7 4 4 -0 -0 -0 -0 -1 -0 -0 -0 -0 -1 -1 -1 -2 -2 -3 -4 -4 -5 -5 -6 -6 -6
16 13 12 13 15 18 17 17 17 14 11 12 10 8 13 14 12 12 10 7 4 1 1 -3 -1 -1 -1 0 0 0 0 -0 -1 -1 -1 -2 -3 -4 -4 -5 -5 -6 -6 -7
15 14 13 13 14 15 14 16 16 13 9 10 9 12 14 14 13 12 8 6 5 2 1 -1 -3 -1 0 0 1 0 0 0 -0 -1 -1 -1 -2 -3 -4 -5 -5 -5 -6 -7
14 13 14 14 14 15 15 14 14 14 13 12 10 13 12 13 12 10 6 6 5 3 2 1 -2 -2 -0 0 1 1 2 1 0 -0 -1 -1 -2 -3 -4 -5 -5 -5 -6 -7
13 11 11 10 13 14 13 11 12 13 13 13 12 12 12 11 9 8 7 6 5 4 4 3 0 -1 -0 1 1 2 1 1 0 -1 -1 -2 -2 -3 -3 -4 -5 -5 -6 -7
12 10 10 12 14 14 12 6 10 13 14 14 12 13 10 10 10 9 7 6 6 5 4 2 0 0 1 1 2 1 1 0 -1 -1 -2 -2 -3 -3 -3 -4 -5 -5 -6 -7
11 11 10 10 11 10 12 13 14 14 15 14 14 11 11 10 9 9 9 7 6 5 4 2 1 1 2 2 1 1 -0 -1 -1 -2 -3 -3 -3 -4 -4 -4 -5 -5 -6 -7
12 11 10 10 11 11 12 13 14 14 13 14 12 11 10 9 8 8 8 7 6 4 3 1 2 2 2 1 1 0 -1 -2 -3 -3 -3 -4 -4 -4 -4 -4 -5 -5 -6 -7
12 12 10 8 9 9 10 14 15 14 10 12 12 10 10 8 7 5 6 5 3 3 2 1 1 1 1 0 0 -1 -2 -2 -3 -4 -4 -4 -4 -4 -4 -4 -5 -5 -6 -7
10 9 9 8 9 9 12 14 15 11 10 11 12 11 9 9 7 7 5 3 2 2 1 1 1 1 0 0 -0 -2 -2 -2 -3 -3 -3 -4 -4 -4 -4 -5 -5 -5 -6 -7
11 10 8 8 8 8 12 13 11 11 10 11 10 9 9 8 7 5 4 2 2 1 1 1 0 0 0 0 0 -2 -2 -2 -3 -3 -3 -3 -4 -5 -5 -5 -6 -6 -6 -7
10 9 8 9 8 10 11 11 12 11 11 10 9 9 8 6 5 3 2 2 2 2 1 1 1 1 0 0 -0 -1 -1 -2 -2 -3 -3 -3 -4 -4 -5 -5 -6 -7 -7 -8
11 11 8 10 10 11 10 11 11 11 11 10 9 8 7 6 4 3 2 3 4 2 1 1 1 0 0 -0 -0 0 -1 -2 -2 -3 -3 -4 -4 -5 -5 -6 -6 -7 -8 -8
8 10 9 8 10 11 11 12 10 10 10 9 8 8 7 6 4 3 4 5 4 3 2 2 1 1 1 1 0 -0 -1 -1 -2 -2 -3 -4 -4 -5 -6 -6 -7 -7 -8 -9
9 9 7 7 9 10 10 10 10 9 9 9 8 8 7 5 4 3 3 4 4 4 2 1 1 0 0 0 -0 -0 -1 -1 -2 -3 -4 -4 -5 -5 -6 -7 -8 -8 -9 -9

GFSCGP_925_temp_159.txt.gz
Temp
19 17 16 17 17 19 20 18 18 18 20 21 19 18 17 14 14 11 9 9 9 9 8 9 9 9 8 8 8 7 7 6 6 6 5 4 2 2 1 1 0 -0 -1 -1
18 16 19 18 18 18 17 17 17 19 19 18 18 18 17 14 15 13 11 10 9 8 7 7 7 8 8 7 7 6 5 5 4 4 4 3 2 1 1 -0 -0 -1 -1 -2
17 18 19 19 18 18 18 17 18 19 20 20 19 17 19 16 16 13 12 11 10 9 8 7 6 6 7 6 6 5 4 4 3 3 4 4 3 1 0 -1 -1 -2 -2 -2
17 19 18 18 18 18 17 19 19 19 18 16 19 17 18 18 14 13 12 10 9 8 8 6 5 4 5 5 5 4 4 4 3 3 3 2 -0 -1 -2 -2 -2 -3 -3 -3
17 19 18 17 19 19 18 19 18 18 17 16 17 16 16 15 14 13 11 10 8 8 7 5 4 4 4 4 4 4 4 3 2 2 1 0 -1 -2 -2 -2 -3 -4 -3 -3
17 19 19 18 20 20 19 19 17 15 15 14 16 16 16 14 15 12 11 10 9 8 7 5 4 3 3 3 3 3 3 2 1 1 0 -0 -1 -2 -3 -3 -4 -4 -4 -4
17 18 19 19 18 19 19 17 14 13 13 15 16 15 17 14 14 13 10 9 9 8 6 4 3 2 2 2 2 3 2 1 0 -0 -1 -1 -2 -3 -3 -4 -4 -4 -5 -5
15 15 17 18 18 18 16 17 14 15 13 15 16 15 14 12 13 12 11 9 10 8 7 4 2 2 1 2 2 2 1 -0 -1 -1 -1 -1 -2 -3 -4 -4 -4 -5 -6 -6
15 15 18 18 18 19 17 16 17 14 13 11 13 14 14 12 11 11 10 9 8 8 5 3 2 1 1 1 1 1 -0 -1 -1 -1 -2 -2 -3 -3 -4 -4 -5 -5 -6 -6
16 15 18 19 19 18 17 16 15 11 13 14 13 14 11 11 11 10 8 9 7 7 5 2 0 0 0 0 0 0 -0 -1 -1 -2 -2 -3 -3 -4 -4 -4 -5 -5 -6 -6
16 13 16 18 17 16 16 15 15 14 13 12 10 10 11 11 10 10 8 7 7 6 4 1 -1 -0 -0 -0 0 0 -1 -1 -1 -2 -3 -3 -4 -4 -4 -5 -5 -6 -6 -6
15 13 13 16 17 17 17 16 16 12 14 10 7 10 11 12 12 12 10 6 6 5 1 0 -1 -1 -1 -0 -0 -0 -1 -1 -1 -2 -2 -3 -4 -4 -4 -5 -6 -6 -6 -6
16 13 12 14 15 16 16 16 16 13 11 12 11 9 13 13 12 12 11 9 4 2 -0 -2 -2 -2 -1 -1 -1 -1 -1 -1 -1 -1 -2 -3 -4 -4 -5 -5 -5 -6 -6 -7
16 13 13 13 14 14 13 15 15 14 10 12 10 12 13 13 12 11 10 7 4 2 -0 -2 -3 -2 -1 -1 -0 -1 -1 -1 -1 -1 -2 -3 -3 -4 -5 -5 -5 -6 -6 -7
13 10 11 12 14 15 14 14 13 13 13 12 11 11 13 13 12 11 7 6 5 3 2 0 -2 -3 -1 -1 -0 -0 0 -0 -1 -1 -1 -2 -3 -4 -5 -5 -6 -6 -7 -7
11 9 10 10 12 13 13 10 12 13 13 13 12 11 12 12 8 7 7 6 6 5 3 2 1 -1 -1 -0 0 1 1 0 -0 -1 -2 -2 -3 -4 -5 -5 -6 -6 -7 -7
9 8 8 10 12 13 11 7 10 12 13 13 11 12 9 9 9 8 7 6 6 4 4 3 1 -0 -0 0 1 1 1 0 -1 -1 -2 -3 -3 -4 -4 -5 -6 -6 -7 -7
8 8 8 9 10 9 10 12 14 14 14 14 13 11 10 10 9 9 7 7 6 5 3 1 -0 -0 0 1 1 0 -0 -1 -1 -2 -2 -3 -3 -4 -4 -5 -6 -6 -7 -7
9 8 8 9 10 11 12 13 13 13 12 13 12 11 10 8 8 9 8 7 6 5 2 1 1 1 1 1 1 -0 -1 -1 -2 -3 -3 -3 -4 -4 -4 -5 -6 -7 -7 -8
8 9 10 8 10 9 10 13 14 13 11 12 11 9 8 8 8 5 6 6 4 3 2 1 1 1 1 -0 0 -1 -2 -2 -3 -3 -3 -4 -4 -4 -5 -5 -5 -7 -7 -8
8 8 9 9 9 9 11 13 14 10 10 10 10 9 8 8 8 8 5 3 2 2 1 1 1 -0 0 0 -0 -1 -2 -2 -3 -3 -4 -4 -4 -4 -5 -5 -6 -6 -7 -8
10 9 8 8 8 8 11 13 11 10 10 10 9 8 8 8 6 5 3 1 1 0 0 0 -0 -1 -0 -0 -1 -2 -2 -2 -3 -3 -4 -4 -5 -5 -5 -5 -6 -7 -8 -8
8 9 8 9 8 9 10 11 11 9 9 10 9 9 8 7 5 3 1 0 1 0 0 0 -1 -1 -1 -1 -1 -2 -2 -2 -3 -3 -4 -4 -5 -5 -6 -6 -7 -7 -8 -9
10 10 7 9 10 10 10 10 10 10 10 9 9 8 7 7 5 3 0 1 1 1 1 0 -0 -1 -1 -1 -0 0 -2 -2 -3 -3 -4 -4 -5 -5 -6 -6 -7 -7 -8 -9
8 9 8 7 9 11 10 9 10 10 10 9 8 8 8 7 4 3 2 2 2 2 1 0 0 -0 -1 -1 -0 -0 -1 -2 -3 -3 -4 -4 -5 -6 -6 -7 -7 -8 -8 -9
8 9 6 6 9 9 10 10 9 8 9 9 9 8 7 6 5 3 2 3 3 3 2 1 1 0 -0 -0 -1 -1 -1 -2 -3 -3 -4 -5 -5 -6 -6 -7 -8 -9 -9 -10